Weather History for Gastonia, NC

Change the Weather History Date:

Wednesday, September 19, 2012

  Actual Average (KCLT) Record (KCLT)
Temperature  
Mean Temperature 68 °F 70 °F  
Max Temperature 75 °F 80 °F 97 °F (1954)
Min Temperature 61 °F 59 °F 46 °F (1984)
Degree Days  
Heating Degree Days 0 1  
Month to date heating degree days 4  
Since 1 July heating degree days 4  
Cooling Degree Days 3 6  
Month to date cooling degree days 153  
Year to date cooling degree days 1430  
Growing Degree Days 18 (Base 50)    
Moisture  
Dew Point 58 °F    
Average Humidity 76    
Maximum Humidity 100    
Minimum Humidity 46    
Precipitation  
Precipitation 0.01 in 0.10 in 2.72 in (1966)
Month to date precipitation 2.03  
Year to date precipitation 30.63  
Snow  
Snow 0.00 in 0.00 in 0.00 in ()
Month to date snowfall 0.0  
Since 1 July snowfall 0.0  
Since 1 September snowfall 0.0  
Snow Depth -    
Sea Level Pressure  
Sea Level Pressure 30.00 in    
Wind  
Wind Speed 3 mph (NE)    
Max Wind Speed 12 mph    
Max Gust Speed 18 mph    
Visibility 8 miles    
Events      
T = Trace of Precipitation, MM = Missing Value Source: NWS Daily Summary

Daily Weather History Graph

Daily Weather History Graph

Search for Another Location

Airport:

Trip Planner

Search our weather history database for the weather conditions in past years. The results will help you decide how hot, cold, wet, or windy it might be!

Date:

Astronomy

Sep. 19, 2012 Rise Set
Actual Time 7:10 AM EDT 7:25 PM EDT
Civil Twilight 6:45 AM EDT 7:50 PM EDT
Nautical Twilight 6:15 AM EDT 8:20 PM EDT
Astronomical Twilight 5:45 AM EDT 8:50 PM EDT
Moon 11:07 AM EDT (9/19) 9:45 PM EDT (9/19)
Length of Visible Light 13h 05m
Length of Day
12h 14m
Waxing Crescent, 17% of the Moon is Illuminated
Sep 19
Waxing Crescent
Sep 22
First Quarter
Sep 29
Full
Oct 8
Last Quarter
Oct 15
New

Hourly Weather History & Observations

Time (EDT) Temp. Dew Point Humidity Pressure Visibility Wind Dir Wind Speed Gust Speed Precip Events Conditions
12:26 AM 64.4 °F 64.4 °F 100% 29.87 in 1.8 mi Calm Calm - N/A   Partly Cloudy
12:38 AM 64.4 °F 64.4 °F 100% 29.88 in 0.8 mi Calm Calm - N/A   Mist
12:54 AM 64.9 °F 63.0 °F 93% 29.87 in 0.8 mi Calm Calm - N/A   Mist
1:11 AM 64.4 °F 64.4 °F 100% 29.89 in 1.2 mi Calm Calm - 0.01 in   Partly Cloudy
1:14 AM 64.4 °F 64.4 °F 100% 29.89 in 4.0 mi Calm Calm - 0.01 in   Partly Cloudy
1:54 AM 64.0 °F 62.1 °F 93% 29.89 in 10.0 mi North 5.8 mph - 0.01 in   Clear
2:54 AM 64.9 °F 61.0 °F 87% 29.89 in 10.0 mi NNE 6.9 mph - N/A   Mostly Cloudy
3:54 AM 64.9 °F 60.1 °F 84% 29.90 in 10.0 mi NNE 5.8 mph - N/A   Overcast
4:54 AM 63.0 °F 59.0 °F 87% 29.92 in 10.0 mi NNE 4.6 mph - N/A   Scattered Clouds
5:54 AM 62.1 °F 57.9 °F 86% 29.95 in 10.0 mi Calm Calm - N/A   Clear
6:54 AM 61.0 °F 57.0 °F 87% 29.96 in 10.0 mi North 5.8 mph - N/A   Clear
7:54 AM 61.0 °F 55.9 °F 83% 30.00 in 10.0 mi North 5.8 mph - N/A   Clear
9:54 AM 64.9 °F 55.9 °F 73% 30.06 in 10.0 mi NNE 9.2 mph - N/A   Overcast
10:54 AM 69.1 °F 55.9 °F 63% 30.07 in 10.0 mi North 11.5 mph 18.4 mph N/A   Scattered Clouds
11:54 AM 71.1 °F 55.0 °F 57% 30.08 in 10.0 mi NE 11.5 mph - N/A   Overcast
12:54 PM 72.0 °F 55.0 °F 55% 30.08 in 10.0 mi NE 9.2 mph - N/A   Overcast
1:54 PM 73.9 °F 55.0 °F 52% 30.07 in 10.0 mi ENE 5.8 mph - N/A   Partly Cloudy
2:54 PM 75.0 °F 55.0 °F 50% 30.06 in 10.0 mi East 8.1 mph - N/A   Partly Cloudy
3:54 PM 75.9 °F 54.0 °F 46% 30.05 in 10.0 mi NE 6.9 mph - N/A   Scattered Clouds
4:54 PM 75.9 °F 55.0 °F 48% 30.05 in 10.0 mi NNE 6.9 mph - N/A   Partly Cloudy
5:54 PM 73.9 °F 54.0 °F 50% 30.06 in 10.0 mi East 4.6 mph - N/A   Clear
6:54 PM 71.1 °F 57.0 °F 61% 30.06 in 10.0 mi Calm Calm - N/A   Clear
7:54 PM 66.9 °F 57.0 °F 70% 30.08 in 10.0 mi Calm Calm - N/A   Clear
8:54 PM 66.0 °F 57.0 °F 73% 30.10 in 10.0 mi Calm Calm - N/A   Clear
9:54 PM 64.0 °F 57.0 °F 78% 30.12 in 10.0 mi Calm Calm - N/A   Clear
10:54 PM 61.0 °F 57.9 °F 90% 30.13 in 10.0 mi Calm Calm - N/A   Clear
11:54 PM 62.1 °F 57.0 °F 84% 30.13 in 10.0 mi Calm Calm - N/A   Clear